Torna al catalogo

YAOGAN-30 V

AttivoMilitareVLEO
NORAD 46808·PAYLOAD·🇨🇳 China

Lanciato Oct 26, 2020 da Xichang Satellite Launch Center

Loading…

Prossimi Passaggi (prossime 24 ore)

TLE

AggiornatoSource: Space-Track

Epoca: Sep 14, 2026, 23:23 UTC

1 46808U 20076B   26257.97449574  .00002104  00000-0  15532-3 0  9998
2 46808  34.9940 263.5879 0000415  21.9369 338.1358 15.03014759321740

Traccia YAOGAN-30 V in tempo reale con AllMySat

Download on the App Store